ISS (25544 NORAD) Tracking and Keplerian Element Data

This shows tracking and keplerian element data for the satellite.

Feedback or suggestion? Click here.




ElementValue
Catalog25544
NameISS
Epoch Orbit2988
Epoch Day262.50939719
Epoch Year2019
RAAN253.4689
Inclination51.6395
Eccentricity0.000744
Argument of Perigee62.876
Mean Anonmoly297.3148
Mean Motion15.50070352
Decay Rate0.00016717
L11 25544U 98067A 19262.50939719 .00016717 00000-0 10270-3 0 9033
L22 25544 51.6395 253.4689 0007440 62.8760 297.3148 15.50070352 29881

Live tracking and technical data element details for ISS (NORAD 25544). ISS can be tracked NOW for your location showing map with azimuth and elevation plus other details from your city location.

Track the satellite on the map from your city or location and see movement details for azimuth, elevation, latitude, longitude, range, height, and movement on the map or in text.







IsCatalogInMostPopularTable: catalog: 25544, numindb: 24667
Update: records affected: 1



GetName: 25544 ISS

Hit Count: updated at: Thu, 19 Sep 2019 16:59:28 GMT